FW4136 Weather Reports


time (UTC)temp
F
wind
direction
speed
knots
gust
knots
rain 1hr
in
rain 24hr
in
rain mn
in
humidity
%
barometer
mb
20260509193017 64 184 7.8 16.5 0.00 0.00 0.00 50 1003.7
20260509183114 65 206 7.0 13.0 0.00 0.00 0.00 49 1004.5
20260509174659 63 184 6.1 10.4 0.00 0.00 0.00 50 1004.6
20260509164700 63 216 5.2 10.4 0.00 0.00 0.00 53 1005.4
20260509141546 59 240 5.2 11.3 0.00 0.00 0.00 62 1006.7
20260509140110 58 222 3.5 8.7 0.00 0.00 0.00 62 1006.9
20260509123150 52 148 5.2 9.6 0.00 0.00 0.00 65 1007.3
20260509113011 48 150 3.5 6.1 0.00 0.02 0.00 66 1007.5
20260509091636 44 158 3.5 6.1 0.00 0.02 0.00 61 1007.7
20260509083013 42 162 4.3 7.0 0.00 0.02 0.00 60 1007.8
20260509073033 41 163 4.3 5.2 0.00 0.02 0.00 59 1008.2
20260509063022 44 150 5.2 7.0 0.00 0.02 0.00 55 1008.7
20260509053043 44 157 3.5 5.2 0.00 0.02 0.00 52 1009.1
20260509043110 42 163 3.5 6.1 0.00 0.02 0.00 51 1009.8
20260509033126 44 161 4.3 5.2 0.00 0.02 0.02 47 1010.2
20260509023137 44 173 5.2 7.0 0.00 0.02 0.02 52 1010.5
20260509003028 51 186 3.5 6.1 0.00 0.05 0.02 41 1010.2
20260508224654 56 158 3.5 7.0 0.00 0.05 0.02 38 1009.7
20260508213105 56 193 5.2 7.8 0.00 0.05 0.02 40 1010.1
20260508203059 51 55 2.6 3.5 0.00 0.05 0.02 55 1010.3